Regional Weather Roundup
Issued by NWS

Home | Current Version | Previous Version | Text Only | Print | Product List | Glossary On
Versions: 1 2 3 4 5 6 7 8 9 10 11 12 13 14 15 16 17 18 19 20 21 22 23 24 25 26 27 28 29 30 31 32 33 34 35 36 37 38 39 40 41 42 43 44 45 46 47 48 49 50
000
ASUS45 KBOU 050510
RWRCO

WEATHER ROUNDUP FOR COLORADO
NATIONAL WEATHER SERVICE DENVER/BOULDER CO
1100 PM MDT TUE AUG 04 2020

NOTE: "FAIR" INDICATES FEW OR NO CLOUDS BELOW 12000 FEET WITH NO
SIGNIFICANT WEATHER AND/OR OBSTRUCTIONS TO VISIBILITY.

COZ001>005-013-030-031-050600-
...NORTHWEST COLORADO...

CITY           SKY/WX    TMP DP  RH WIND       PRES   REMARKS
CRAIG          FAIR      58  42  55 N3        30.14S
HAYDEN         FAIR      66  34  30 CALM      30.18F
MEEKER         FAIR      59  33  37 VRB7      30.15R
RANGELY        FAIR      79  33  18 E8        30.03S
RABBIT EARS PA FAIR      61  28  29 CALM      30.51F
STEAMBOAT SPGS FAIR      63  35  35 CALM      30.18S
WALDEN         NOT AVBL
$$

COZ006>008-011-050600-
...WEST CENTRAL VALLEYS...

CITY           SKY/WX    TMP DP  RH WIND       PRES   REMARKS
GRAND JUNCTION FAIR      79  18  10 E7        29.97R
MONTROSE       FAIR      82  26  13 S9G23     30.10S
EAGLE          FAIR      67  37  33 CALM      30.20R
RIFLE          FAIR      74  35  24 SE8       30.06R
DELTA          FAIR      76  30  18 NE7       30.04S
NUCLA          NOT AVBL
$$

COZ017>023-064>068-050600-
...SOUTHWEST COLORADO...

CITY           SKY/WX    TMP DP  RH WIND       PRES   REMARKS
DURANGO        FAIR      65  32  29 VRB3      30.22R
CORTEZ         FAIR      63  36  36 NE8       30.14S
PAGOSA SPRINGS FAIR      59  31  35 CALM      30.31S
TELLURIDE      FAIR      63  28  27 SE7       30.44S
WOLF CREEK PAS FAIR      54  21  28 SW10      30.70S
$$

COZ009-010-012-014-032>034-037-058>063-050600-
...CENTRAL COLORADO...

CITY           SKY/WX    TMP DP  RH WIND       PRES   REMARKS
ASPEN          FAIR      61  34  36 SW10      30.27S
BUENA VISTA    FAIR      65  34  31 CALM      30.33S
COPPER MTN     MOCLDY    59  27  29 W5        30.64F
BERTHOUD PASS  CLOUDY    43  28  56 MISG      30.69S
COTTONWOOD PAS FAIR      61  34  36 CALM      30.49S
GUNNISON       FAIR      62  36  37 NE3       30.28R
GRANBY         NOT AVBL
KREMMLING        N/A    N/A N/A N/A MISG        N/A
LEADVILLE      MOCLDY    49  28  44 NE3       30.48R
MONARCH PASS   FAIR      54  34  47 NE7       30.76S
SALIDA         FAIR      71  46  41 E10G16    30.37R
SUNLIGHT       NOT AVBL
WILKERSON PASS FAIR      50  45  81 E8        30.63S
$$

COZ069>075-050600-
...SAN LUIS VALLEY/SANGRE DE CRISTO MOUNTAINS...

CITY           SKY/WX    TMP DP  RH WIND       PRES   REMARKS
ALAMOSA        FAIR      59  40  49 E3        30.26S
DEL NORTE      FAIR      65  34  30 W7        30.31R
LA VETA PASS   NOT AVBL
SAGUACHE       FAIR      61  39  44 NW6       30.30S
$$

COZ035-036-038>040-050600-
...NORTHERN COLORADO FRONT RANGE...

CITY           SKY/WX    TMP DP  RH WIND       PRES   REMARKS
DENVER INTL AP MOCLDY    72  52  49 N10       30.21R
AURORA         MOCLDY    69  54  57 SW6       30.21R
WATKINS        NOT AVBL
ERIE           NOT AVBL
BOULDER        NOT AVBL
CENTENNIAL     FAIR      70  52  52 VRB6      30.21S
BROOMFIELD     NOT AVBL
FORT COLLINS   FAIR      72  50  45 E9        30.18F
LONGMONT       DRIZZLE   73  57  58 CALM      30.22R
$$

COZ041-046-047-076>085-087-088-050600-
...PIKES PEAK/PALMER DIVIDE AND SOUTHERN FOOTHILLS...

CITY           SKY/WX    TMP DP  RH WIND       PRES   REMARKS
COLO. SPRINGS  MOCLDY    66  51  58 CALM      30.29R
A. F. ACADEMY  FAIR      64  53  67 S6        30.27F
SCHRIEVER AFB  NOT AVBL
CHEYENNE MTN   MOCLDY    63  51  64 CALM      30.27F
ELLICOTT       LGT RAIN  63  55  77 SE10G23   30.24S
FALCON         FAIR      60  50  68 SW5       30.32R
FORT CARSON    MOCLDY    65  53  65 N7        30.24R
LIMON          FAIR      64  57  78 S5        30.18R
MONUMENT HILL  NOT AVBL
CANON CITY     NOT AVBL
WALSENBURG     NOT AVBL
TRINIDAD       FAIR      68  55  63 N16G24    30.18R
$$

COZ042>045-048>051-090-091-050600-
...NORTHEAST COLORADO...

CITY           SKY/WX    TMP DP  RH WIND       PRES   REMARKS
GREELEY        LGT RAIN  64  60  87 S9        30.15F
AKRON          FAIR      62  53  72 W13       30.13R
BURLINGTON     FAIR      67  60  78 S15       30.06R
WRAY           FAIR      64  59  82 E7        30.06R
YUMA           NOT AVBL
STERLING       FAIR      63  55  77 W9        30.09R
HOLYOKE        NOT AVBL
FORT MORGAN    FAIR      70  55  57 W14       30.15S
$$

COZ086-089-092>099-050600-
...SOUTHEAST COLORADO...

CITY           SKY/WX    TMP DP  RH WIND       PRES   REMARKS
PUEBLO         FAIR      69  58  67 E16G23    30.15R
LA JUNTA       FAIR      64  58  80 E17       30.11F
LAMAR          TSTM      63  60  90 S26G48    30.04F FOG
SPRINGFIELD      N/A     67  58  72 NE37G53   30.19R
$$



USA.gov is the U.S. government's official web portal to all federal, state and local government web resources and services.